DW8306 Weather Reports


time (UTC)temp
C
wind
direction
speed
KPH
gust
KPH
rain 1hr
cm
rain 24hr
cm
rain mn
cm
humidity
%
barometer
mb
20260506194506 21 354 6.4 17.7 0.00 0.00 0.00 79 1009.8
20260506193111 21 347 6.4 17.7 0.00 0.00 0.00 78 1010.2
20260506191510 22 344 6.4 14.5 0.00 0.00 0.00 80 1010.3
20260506190011 21 77 6.4 14.5 0.00 0.00 0.00 83 1010.3
20260506184507 21 16 4.8 9.7 0.00 0.00 0.00 83 1010.5
20260506183114 20 336 3.2 16.1 0.00 0.00 0.00 85 1011.2
20260506181536 20 81 4.8 16.1 0.00 0.00 0.00 86 1011.5
20260506180105 21 359 8.0 20.9 0.00 0.00 0.00 82 1011.9
20260506174516 22 13 4.8 12.9 0.00 0.00 0.00 82 1011.6
20260506173005 22 319 3.2 14.5 0.00 0.00 0.00 82 1012.1
20260506171505 22 333 4.8 12.9 0.00 0.00 0.00 84 1012.2
20260506164627 22 317 4.8 12.9 0.00 0.00 0.00 84 1011.7
20260506163014 23 316 3.2 14.5 0.00 0.00 0.00 83 1011.1
20260506161508 23 4 0.0 8.0 0.00 0.00 0.00 83 1011.1
20260506160134 23 66 0.0 8.0 0.00 0.00 0.00 83 1010.6
20260506154514 24 4 1.6 11.3 0.00 0.00 0.00 80 1010.8
20260506153012 26 264 0.0 1.6 0.00 0.00 0.00 81 1010.4
20260506151609 26 195 0.0 0.0 0.00 0.00 0.00 83 1010.3
20260506150004 26 127 0.0 1.6 0.00 0.00 0.00 84 1010.0
20260506144612 25 45 0.0 0.0 0.00 0.00 0.00 85 1010.0
20260506143105 25 18 0.0 0.0 0.00 0.00 0.00 86 1010.1
20260506141605 25 349 0.0 0.0 0.00 0.00 0.00 86 1010.0
20260506140013 24 323 0.0 0.0 0.00 0.00 0.00 87 1010.0
20260506134612 24 166 0.0 0.0 0.00 0.00 0.00 89 1009.8
20260506133116 23 176 0.0 0.0 0.00 0.00 0.00 90 1009.7
20260506131519 23 179 0.0 0.0 0.00 0.00 0.00 91 1009.6
20260506130014 23 179 0.0 0.0 0.00 0.00 0.00 91 1009.6
20260506124623 23 179 0.0 0.0 0.00 0.00 0.00 91 1009.5
20260506123012 23 179 0.0 0.0 0.00 0.00 0.00 91 1009.4
20260506121512 23 179 0.0 0.0 0.00 0.00 0.00 91 1009.1
20260506120116 22 179 0.0 0.0 0.00 0.00 0.00 91 1009.0
20260506114518 22 179 0.0 0.0 0.00 0.00 0.00 91 1009.0
20260506113011 22 179 0.0 0.0 0.00 0.00 0.00 91 1008.7
20260506111515 22 179 0.0 0.0 0.00 0.00 0.00 91 1008.4
20260506110020 22 179 0.0 0.0 0.00 0.00 0.00 91 1008.3
20260506104531 22 179 0.0 0.0 0.00 0.00 0.00 91 1008.2
20260506103035 22 179 0.0 0.0 0.00 0.00 0.00 91 1008.0
20260506101508 22 179 0.0 0.0 0.00 0.00 0.00 91 1007.8
20260506100018 22 179 0.0 0.0 0.00 0.00 0.00 90 1007.9
20260506094518 22 179 0.0 0.0 0.00 0.00 0.00 90 1007.4
20260506093018 22 211 0.0 0.0 0.00 0.00 0.00 90 1007.3
20260506091516 22 211 0.0 0.0 0.00 0.00 0.00 90 1007.5
20260506090016 22 206 0.0 0.0 0.00 0.00 0.00 90 1007.6
20260506084636 23 187 0.0 0.0 0.00 0.00 0.00 89 1007.3
20260506083107 23 187 0.0 0.0 0.00 0.00 0.00 89 1007.2
20260506081518 23 220 0.0 0.0 0.00 0.00 0.00 88 1007.2
20260506073006 23 156 0.0 0.0 0.00 0.00 0.00 87 1007.0
20260506071606 23 141 0.0 0.0 0.00 0.00 0.00 87 1007.3
20260506061520 23 172 0.0 0.0 0.00 0.00 0.00 88 1007.8
20260506044607 23 160 0.0 0.0 0.00 0.00 0.00 89 1007.1
20260506043011 23 160 0.0 0.0 0.00 0.00 0.00 89 1007.1
20260506041610 23 200 0.0 0.0 0.00 0.00 0.00 88 1006.8
20260506040110 23 206 0.0 0.0 0.00 0.00 0.00 88 1007.1
20260506034515 23 204 0.0 0.0 0.00 0.00 0.00 87 1006.8
20260506033003 24 164 0.0 0.0 0.00 0.00 0.00 87 1007.0
20260506031616 24 164 0.0 0.0 0.00 0.00 0.00 87 1007.1
20260506030012 24 164 0.0 0.0 0.00 0.00 0.00 86 1007.0
20260506024516 24 164 0.0 0.0 0.00 0.00 0.00 85 1006.7
20260506023121 25 164 0.0 0.0 0.00 0.00 0.00 84 1006.4
20260506021622 25 164 0.0 0.0 0.00 0.00 0.00 83 1006.3
20260506020107 25 164 0.0 0.0 0.00 0.00 0.00 82 1006.2
20260506014615 25 164 0.0 0.0 0.00 0.00 0.00 81 1006.1
20260506013019 25 164 0.0 1.6 0.00 0.00 0.00 81 1006.0
20260506011524 26 164 0.0 1.6 0.00 0.00 0.00 80 1005.6
20260506010007 26 164 0.0 1.6 0.00 0.00 0.00 79 1005.1
20260506004513 26 164 0.0 3.2 0.00 0.00 0.00 78 1005.1
20260506003021 27 193 0.0 0.0 0.00 0.00 0.00 77 1005.1
20260506000012 27 179 0.0 3.2 0.00 0.00 0.00 75 1005.1
20260505234508 27 166 0.0 3.2 0.00 0.00 0.00 74 1005.0
20260505233113 27 162 0.0 3.2 0.00 0.00 0.00 74 1005.0
20260505231532 28 199 1.6 6.4 0.00 0.00 0.00 73 1004.8
20260505230023 28 155 0.0 3.2 0.00 0.00 0.00 72 1004.7
20260505224517 28 158 0.0 1.6 0.00 0.00 0.00 73 1004.8
20260505221508 28 180 1.6 6.4 0.00 0.00 0.00 71 1005.1
20260505220009 29 171 0.0 1.6 0.00 0.00 0.00 71 1005.2
20260505214511 28 172 0.0 1.6 0.00 0.00 0.00 73 1005.4
20260505213016 28 131 0.0 3.2 0.00 0.00 0.00 73 1005.3
20260505211607 28 185 0.0 3.2 0.00 0.00 0.00 70 1005.3
20260505210106 29 154 0.0 6.4 0.00 0.00 0.00 70 1005.5
20260505204514 28 160 0.0 8.0 0.00 0.00 0.00 70 1005.2
20260505203014 29 183 0.0 11.3 0.00 0.00 0.00 70 1005.5
20260505201608 28 199 3.2 11.3 0.00 0.00 0.00 69 1005.7
20260505200022 28 152 0.0 6.4 0.00 0.00 0.00 73 1005.9